Regional Weather Roundup
Issued by NWS

Home | Current Version | Previous Version | Graphics & Text | Print | Product List | Glossary On
Versions: 1 2 3 4 5 6 7 8 9 10 11 12 13 14 15 16 17 18 19 20 21 22 23 24 25 26 27 28 29 30 31 32 33 34 35 36 37 38 39 40 41 42 43 44 45 46 47 48 49 50
000
ASUS43 KOAX 310810
RWRNE

WEATHER ROUNDUP FOR NEBRASKA
NATIONAL WEATHER SERVICE OMAHA NE
300 AM CDT FRI OCT 31 2014

NOTES: SATELLITE DATA IS BEING USED TO AUGMENT CLOUD COVER ABOVE
       12000 FEET.
       "FAIR" INDICATES FEW OR NO CLOUDS BELOW 12,000 FEET WITH NO
       SIGNIFICANT WEATHER AND/OR OBSTRUCTIONS TO VISIBILITY.

  * THESE STATIONS DO NOT REPORT WEATHER SUCH AS RAIN...SNOW OR FOG.

NEZ001>004-019>022-054>056-310900-
NEBRASKA PANHANDLE

CITY           SKY/WX    TMP DP  RH WIND       PRES   REMARKS
SCOTTSBLUFF    CLEAR     34  30  85 E9        30.43F WCI  27
ALLIANCE       CLEAR     23  21  92 S3        30.44F
CHADRON        PTCLDY    24  21  88 CALM      30.46F FOG
KIMBALL        CLEAR     30  28  91 CALM      30.41S
SIDNEY         CLEAR     27  25  92 SE5       30.45S WCI  22
$$

NEZ057>060-069>072-079>082-310900-
SOUTHWEST NEBRASKA

CITY           SKY/WX    TMP DP  RH WIND       PRES   REMARKS
NORTH PLATTE   CLEAR     29  26  89 CALM      30.48R
IMPERIAL       CLEAR     29  24  82 N5        30.48R WCI  24
LEXINGTON      CLOUDY    35  32  89 NE12G20   30.48R WCI  27
MCCOOK         CLEAR     30  27  88 N5        30.48R WCI  25
OGALLALA       CLEAR     29  28  94 CALM      30.48R
$$

NEZ005>010-023>029-035>040-094-310900-
NORTH CENTRAL NEBRASKA

CITY           SKY/WX    TMP DP  RH WIND       PRES   REMARKS
VALENTINE      CLOUDY    31  26  82 NE12      30.53R WCI  22
AINSWORTH      CLOUDY    30  26  83 NE10      30.52R WCI  21
BROKEN BOW     CLOUDY    32  27  81 N17G24    30.49R WCI  21
O`NEILL        CLOUDY    32  24  74 N14G21    30.52S WCI  22
ORD            CLOUDY    33  26  75 NE15      30.50R WCI  23
THEDFORD       CLOUDY    33  31  94 NE10      30.51R WCI  24
$$

NEZ041-046>049-061>064-073>077-083>087-310900-
SOUTH CENTRAL NEBRASKA

CITY           SKY/WX    TMP DP  RH WIND       PRES   REMARKS
GRAND ISLAND   CLOUDY    37  28  70 N21       30.48R WCI  26
AURORA         CLOUDY    37  28  70 N22G28    30.46R WCI  25
HASTINGS       CLOUDY    37  30  75 N15G21    30.46R WCI  28
HEBRON         CLOUDY    40  31  71 N9        30.44R WCI  34
HOLDREGE       CLOUDY    34  31  90 NE16      30.47R WCI  24
KEARNEY *      CLOUDY    36  28  75 NW15      30.48R WCI  26
YORK           CLOUDY    37  28  70 NE18G26   30.45S WCI  27
$$

NEZ011>018-030>034-042>045-310900-
NORTHEAST NEBRASKA

CITY           SKY/WX    TMP DP  RH WIND       PRES   REMARKS
NORFOLK        PTCLDY    31  20  63 N17G28    30.50R WCI  19
ALBION         CLOUDY    34  24  67 N13G22    30.49S WCI  25
BLAIR          PTCLDY    33  23  64 N25G33    30.43S WCI  21
FREMONT        CLOUDY    35  24  64 N14G23    30.48R WCI  26
TEKAMAH        MOCLDY    34  22  61 N22G28    30.48R WCI  22
WAYNE          CLEAR     29  21  72 N13       30.51S WCI  19
$$

NEZ050>053-065>068-078-088>093-310900-
SOUTHEAST NEBRASKA

CITY           SKY/WX    TMP DP  RH WIND       PRES   REMARKS
LINCOLN        CLOUDY    37  25  61 N24G36    30.47R WCI  26
OMAHA EPPLEY   MOCLDY    34  22  61 N23G32    30.46R WCI  22
BEATRICE       CLOUDY    38  29  70 N20G26    30.42R WCI  28
FALLS CITY     LGT RAIN  40  30  67 N17G31    30.38R WCI  31
NEBRASKA CITY  CLOUDY    38  25  60 NE22      30.41R WCI  27
PLATTSMOUTH    MOCLDY    35  23  60 N21G33    30.43R WCI  24
$$

NEZ044-045-051>053-067-310900-
OMAHA AREA

CITY           SKY/WX    TMP DP  RH WIND       PRES   REMARKS
OMAHA EPPLEY   MOCLDY    34  22  61 N23G32    30.46R WCI  22
BLAIR          PTCLDY    33  23  64 N25G33    30.43S WCI  21
FREMONT        CLOUDY    35  24  64 N14G23    30.48R WCI  26
MILLARD        CLOUDY    37  26  65 N17G32    30.46R WCI  27
OFFUTT AFB     CLOUDY    35  23  62 N18G25    30.45R WCI  24
PLATTSMOUTH    MOCLDY    35  23  60 N21G33    30.43R WCI  24
WAHOO          CLOUDY    36  24  63 N17G28    30.46R WCI  25
$$



USA.gov is the U.S. government's official web portal to all federal, state and local government web resources and services.